• In Russia
  • List of Countries
  • For 7 days
  • Water Temperature
  • Satellite Maps
  • Weather Map
  • Weather Widgets
  • user-avatar
    Login

    Hourly Weather Gjirokaster

    Today, 23 May, Tuesday

    Time Temperature Precipitation Wind Pressure Humidity
    00:00 +7°C° 0.3 mm 2 mps 651 mmHg 88%
    01:00 +7°C° 0 mm 2 mps 651 mmHg 87%
    02:00 +8°C° 0.2 mm 1 mps 651 mmHg 87%
    03:00 +8°C° 0.2 mm 1 mps 651 mmHg 87%
    04:00 +7°C° 0.2 mm 1 mps 651 mmHg 87%
    05:00 +10°C° 0.1 mm 1 mps 651 mmHg 81%
    06:00 +12°C° 0.1 mm 1 mps 652 mmHg 76%
    07:00 +14°C° 0.1 mm 1 mps 653 mmHg 70%
    08:00 +15°C° 0.5 mm 1 mps 653 mmHg 67%
    09:00 +16°C° 0.5 mm 1 mps 653 mmHg 65%
    10:00 +18°C° 0.5 mm 1 mps 654 mmHg 62%
    11:00 +17°C° 1.5 mm 2 mps 654 mmHg 65%
    12:00 +17°C° 1.5 mm 2 mps 653 mmHg 68%
    13:00 +17°C° 1.5 mm 2 mps 653 mmHg 71%
    14:00 +16°C° 1.4 mm 2 mps 653 mmHg 73%
    15:00 +16°C° 1.4 mm 2 mps 653 mmHg 74%
    16:00 +15°C° 1.4 mm 2 mps 653 mmHg 76%
    17:00 +13°C° 0.6 mm 1 mps 652 mmHg 82%
    18:00 +12°C° 0.6 mm 1 mps 652 mmHg 87%
    19:00 +10°C° 0.6 mm 1 mps 652 mmHg 92%
    20:00 +9°C° 0.1 mm 1 mps 652 mmHg 92%
    21:00 +9°C° 0.1 mm 1 mps 652 mmHg 93%
    22:00 +8°C° 0.1 mm 1 mps 652 mmHg 93%
    23:00 +7°C° 0 mm 0 mps 652 mmHg 93%

    Tomorrow, 24 May, Wednesday

    Time Temperature Precipitation Wind Pressure Humidity
    00:00 +6°C° 0 mm 0 mps 652 mmHg 93%
    01:00 +6°C° 0 mm 0 mps 652 mmHg 94%
    02:00 +6°C° 0 mm 0 mps 651 mmHg 94%
    03:00 +5°C° 0 mm 0 mps 651 mmHg 94%
    04:00 +5°C° 0 mm 0 mps 651 mmHg 94%
    05:00 +7°C° 0 mm 0 mps 652 mmHg 88%
    06:00 +10°C° 0 mm 0 mps 652 mmHg 82%
    07:00 +12°C° 0 mm 0 mps 653 mmHg 76%
    08:00 +14°C° 0.1 mm 1 mps 653 mmHg 69%
    09:00 +16°C° 0.1 mm 1 mps 654 mmHg 62%
    10:00 +17°C° 0.1 mm 2 mps 654 mmHg 55%
    11:00 +17°C° 0.2 mm 2 mps 654 mmHg 55%
    12:00 +17°C° 0.2 mm 3 mps 654 mmHg 55%
    13:00 +18°C° 0.2 mm 3 mps 653 mmHg 55%
    14:00 +17°C° 0.3 mm 3 mps 653 mmHg 57%
    15:00 +17°C° 0.3 mm 3 mps 653 mmHg 59%
    16:00 +16°C° 0.3 mm 3 mps 653 mmHg 61%
    17:00 +14°C° 0.1 mm 2 mps 652 mmHg 70%
    18:00 +12°C° 0.1 mm 2 mps 651 mmHg 79%
    19:00 +9°C° 0.1 mm 2 mps 651 mmHg 88%
    20:00 +9°C° 0 mm 1 mps 651 mmHg 89%
    21:00 +8°C° 0 mm 1 mps 651 mmHg 90%
    22:00 +7°C° 0 mm 1 mps 651 mmHg 91%
    23:00 +7°C° 0 mm 1 mps 651 mmHg 91%

    Day after tomorrow, 25 May, Thursday

    Time Temperature Precipitation Wind Pressure Humidity
    00:00 +7°C° 0 mm 1 mps 650 mmHg 92%
    01:00 +5°C° 0 mm 0 mps 650 mmHg 92%
    02:00 +5°C° 0 mm 0 mps 650 mmHg 92%
    03:00 +5°C° 0 mm 0 mps 650 mmHg 92%
    04:00 +5°C° 0 mm 0 mps 649 mmHg 92%
    05:00 +8°C° 0.2 mm 1 mps 650 mmHg 89%
    06:00 +9°C° 0.2 mm 1 mps 651 mmHg 85%
    07:00 +11°C° 0.2 mm 1 mps 651 mmHg 82%
    08:00 +12°C° 0.2 mm 1 mps 652 mmHg 77%
    09:00 +14°C° 0.2 mm 1 mps 652 mmHg 72%
    10:00 +15°C° 0.2 mm 1 mps 652 mmHg 67%
    11:00 +15°C° 0.5 mm 2 mps 652 mmHg 67%
    12:00 +15°C° 0.5 mm 2 mps 652 mmHg 66%
    13:00 +16°C° 0.5 mm 3 mps 652 mmHg 66%
    14:00 +14°C° 0.7 mm 4 mps 651 mmHg 65%
    15:00 +14°C° 0.7 mm 4 mps 651 mmHg 65%
    16:00 +14°C° 0.7 mm 4 mps 651 mmHg 64%
    17:00 +11°C° 0.1 mm 4 mps 650 mmHg 70%
    18:00 +9°C° 0.1 mm 3 mps 650 mmHg 76%
    19:00 +7°C° 0.1 mm 3 mps 649 mmHg 82%
    20:00 +7°C° 0 mm 3 mps 649 mmHg 83%
    21:00 +5°C° 0 mm 3 mps 649 mmHg 83%
    22:00 +5°C° 0 mm 2 mps 649 mmHg 84%
    23:00 +5°C° 0 mm 2 mps 649 mmHg 83%

    26 May, Friday

    Time Temperature Precipitation Wind Pressure Humidity
    00:00 +5°C° 0 mm 2 mps 649 mmHg 83%
    01:00 +5°C° 0 mm 2 mps 648 mmHg 83%
    02:00 +4°C° 0 mm 2 mps 648 mmHg 83%
    03:00 +4°C° 0 mm 2 mps 648 mmHg 84%
    04:00 +5°C° 0 mm 1 mps 648 mmHg 84%
    05:00 +7°C° 0 mm 1 mps 648 mmHg 77%
    06:00 +10°C° 0 mm 1 mps 649 mmHg 69%
    07:00 +12°C° 0 mm 1 mps 650 mmHg 62%
    08:00 +13°C° 0 mm 2 mps 650 mmHg 56%
    09:00 +15°C° 0 mm 2 mps 651 mmHg 50%
    10:00 +16°C° 0 mm 3 mps 651 mmHg 45%
    11:00 +16°C° 0 mm 3 mps 651 mmHg 44%
    12:00 +17°C° 0 mm 4 mps 651 mmHg 44%
    13:00 +16°C° 0 mm 5 mps 650 mmHg 44%
    14:00 +16°C° 0 mm 5 mps 650 mmHg 47%
    15:00 +15°C° 0 mm 5 mps 650 mmHg 49%
    16:00 +15°C° 0 mm 5 mps 650 mmHg 51%
    17:00 +13°C° 0 mm 4 mps 649 mmHg 60%
    18:00 +11°C° 0 mm 4 mps 649 mmHg 69%
    19:00 +8°C° 0 mm 3 mps 648 mmHg 77%
    20:00 +8°C° 0 mm 3 mps 648 mmHg 78%
    21:00 +7°C° 0 mm 2 mps 648 mmHg 79%
    22:00 +6°C° 0 mm 2 mps 648 mmHg 80%
    23:00 +6°C° 0 mm 2 mps 648 mmHg 82%

    27 May, Saturday

    Time Temperature Precipitation Wind Pressure Humidity
    00:00 +5°C° 0 mm 2 mps 648 mmHg 83%
    01:00 +5°C° 0 mm 2 mps 648 mmHg 85%
    02:00 +5°C° 0 mm 2 mps 648 mmHg 86%
    03:00 +5°C° 0 mm 2 mps 648 mmHg 88%
    04:00 +4°C° 0 mm 2 mps 648 mmHg 89%
    05:00 +7°C° 0 mm 2 mps 649 mmHg 80%
    06:00 +10°C° 0 mm 1 mps 649 mmHg 72%
    07:00 +13°C° 0 mm 1 mps 650 mmHg 63%
    08:00 +14°C° 0 mm 2 mps 650 mmHg 56%
    09:00 +14°C° 0 mm 3 mps 651 mmHg 49%
    10:00 +17°C° 0 mm 3 mps 651 mmHg 42%
    11:00 +17°C° 0 mm 4 mps 651 mmHg 41%
    12:00 +17°C° 0 mm 4 mps 651 mmHg 40%
    13:00 +18°C° 0 mm 4 mps 651 mmHg 39%
    14:00 +17°C° 0 mm 4 mps 651 mmHg 40%
    15:00 +17°C° 0 mm 4 mps 651 mmHg 42%
    16:00 +15°C° 0 mm 4 mps 650 mmHg 43%
    17:00 +13°C° 0 mm 3 mps 650 mmHg 54%
    18:00 +10°C° 0 mm 3 mps 649 mmHg 64%
    19:00 +8°C° 0 mm 2 mps 649 mmHg 75%
    20:00 +7°C° 0 mm 2 mps 649 mmHg 76%
    21:00 +6°C° 0 mm 2 mps 649 mmHg 77%
    22:00 +5°C° 0 mm 2 mps 649 mmHg 79%
    23:00 +4°C° 0 mm 2 mps 649 mmHg 77%

    28 May, Sunday

    Time Temperature Precipitation Wind Pressure Humidity
    00:00 +4°C° 0 mm 2 mps 649 mmHg 76%
    01:00 +4°C° 0 mm 2 mps 649 mmHg 75%
    02:00 +4°C° 0 mm 2 mps 649 mmHg 73%
    03:00 +3°C° 0 mm 2 mps 649 mmHg 72%
    04:00 +3°C° 0 mm 2 mps 649 mmHg 70%
    05:00 +6°C° 0 mm 2 mps 650 mmHg 64%
    06:00 +9°C° 0 mm 2 mps 651 mmHg 58%
    07:00 +12°C° 0 mm 2 mps 652 mmHg 52%
    08:00 +14°C° 0 mm 2 mps 652 mmHg 48%
    09:00 +15°C° 0 mm 2 mps 652 mmHg 44%
    10:00 +16°C° 0 mm 2 mps 653 mmHg 40%
    11:00 +17°C° 0 mm 3 mps 653 mmHg 40%
    12:00 +17°C° 0 mm 4 mps 652 mmHg 39%
    13:00 +18°C° 0 mm 4 mps 652 mmHg 39%
    14:00 +17°C° 0 mm 4 mps 652 mmHg 42%
    15:00 +16°C° 0 mm 5 mps 652 mmHg 45%
    16:00 +16°C° 0 mm 5 mps 652 mmHg 48%
    17:00 +13°C° 0 mm 4 mps 652 mmHg 57%
    18:00 +11°C° 0 mm 4 mps 652 mmHg 66%
    19:00 +9°C° 0 mm 3 mps 651 mmHg 76%
    20:00 +9°C° 0 mm 3 mps 652 mmHg 76%
    21:00 +8°C° 0 mm 3 mps 652 mmHg 76%
    22:00 +8°C° 0 mm 3 mps 652 mmHg 77%
    23:00 +8°C° 0 mm 3 mps 652 mmHg 77%
    Show more